EW4330 Weather Reports


time (UTC)temp
F
wind
direction
speed
knots
gust
knots
rain 1hr
in
rain 24hr
in
rain mn
in
humidity
%
barometer
mb
20260507083505 59 90 1.7 4.3 0.00 0.34 0.21 97 1015.0
20260507083006 59 90 2.6 4.3 0.00 0.34 0.21 97 1015.0
20260507082507 59 90 2.6 4.3 0.00 0.34 0.21 97 1015.0
20260507082006 58 90 2.6 4.3 0.00 0.34 0.21 97 1015.0
20260507081506 58 102 0.9 1.7 0.00 0.34 0.21 97 1015.0
20260507081007 57 158 1.7 1.7 0.00 0.34 0.21 97 1015.0
20260507080507 56 270 0.0 2.6 0.00 0.34 0.21 97 1015.0
20260507080005 56 282 0.0 2.6 0.00 0.34 0.21 97 1015.0
20260507075006 56 181 0.0 1.7 0.00 0.34 0.21 97 1015.0
20260507074508 56 45 0.0 0.9 0.00 0.34 0.21 97 1015.0
20260507071035 54 248 0.0 1.7 0.00 0.34 0.21 97 1015.0
20260507070033 54 112 0.9 2.6 0.00 0.34 0.21 97 1015.0
20260507065532 55 90 1.7 2.6 0.00 0.34 0.21 97 1015.0
20260507065034 54 90 1.7 1.7 0.00 0.34 0.21 97 1015.0
20260507064033 54 90 0.0 0.0 0.00 0.34 0.21 97 1015.0
20260507063035 54 90 0.0 0.0 0.00 0.34 0.21 97 1015.0
20260507062532 54 90 0.0 0.0 0.00 0.34 0.21 97 1015.0
20260507062033 54 90 0.0 0.9 0.00 0.34 0.21 97 1015.0
20260507061533 54 90 0.9 1.7 0.00 0.34 0.21 97 1015.0
20260507061035 54 97 0.9 2.6 0.00 0.34 0.21 97 1015.0
20260507060533 54 90 2.6 2.6 0.00 0.34 0.21 97 1015.0
20260507060033 54 248 0.0 0.0 0.00 0.34 0.21 97 1015.0
20260507055534 54 248 0.0 0.9 0.00 0.34 0.21 97 1015.0
20260507055035 53 253 0.9 1.7 0.00 0.35 0.21 97 1015.0
20260507054532 54 266 0.0 1.7 0.00 0.35 0.21 97 1015.0
20260507054033 54 135 0.9 1.7 0.00 0.35 0.21 97 1015.0
20260507053533 53 135 0.9 1.7 0.00 0.35 0.21 97 1015.0
20260507053035 53 270 0.0 1.7 0.00 0.35 0.21 97 1015.0
20260507052532 53 310 1.7 1.7 0.00 0.35 0.21 97 1015.0
20260507052033 53 90 0.0 1.7 0.00 0.35 0.21 97 1015.0
20260507051532 53 90 1.7 2.6 0.00 0.35 0.21 97 1015.0
20260507050532 53 87 0.9 1.7 0.00 0.35 0.21 97 1015.0
20260507045532 53 84 0.9 1.7 0.00 0.35 0.21 97 1015.0
20260507044532 53 90 0.9 1.7 0.00 0.36 0.21 97 1015.0
20260507044033 53 90 0.9 1.7 0.00 0.37 0.21 97 1014.0
20260507043533 53 66 1.7 1.7 0.00 0.37 0.21 97 1014.0
20260507043034 53 90 1.7 2.6 0.00 0.38 0.21 97 1014.0
20260507042533 53 90 1.7 2.6 0.00 0.38 0.21 97 1015.0
20260507042033 53 68 0.0 0.9 0.00 0.38 0.21 97 1015.0
20260507041034 53 45 0.0 0.0 0.00 0.38 0.21 97 1014.0
20260507040533 53 45 0.0 0.0 0.00 0.38 0.21 97 1014.0
20260507040033 53 45 0.9 0.9 0.00 0.38 0.21 97 1014.0
20260507035034 53 90 0.0 1.7 0.00 0.39 0.21 97 1014.0
20260507034533 53 90 0.0 1.7 0.00 0.39 0.21 97 1014.0
20260507034033 53 89 1.7 2.6 0.00 0.39 0.21 97 1014.0
20260507033532 53 90 1.7 2.6 0.00 0.40 0.21 97 1014.0
20260507033034 53 90 1.7 1.7 0.00 0.40 0.21 96 1014.0
20260507032531 53 90 0.9 1.7 0.00 0.40 0.21 96 1014.0
20260507032032 53 90 0.9 1.7 0.00 0.40 0.21 96 1014.0
20260507031532 53 68 0.9 1.7 0.00 0.40 0.21 96 1014.0
20260507031034 53 68 0.0 1.7 0.00 0.40 0.21 96 1014.0
20260507030532 53 270 0.9 1.7 0.00 0.40 0.21 96 1014.0
20260507030033 53 0 0.0 0.0 0.00 0.40 0.21 96 1014.0
20260507025532 53 0 0.0 1.7 0.00 0.40 0.21 96 1014.0
20260507025034 53 0 0.0 1.7 0.00 0.40 0.21 96 1014.0
20260507024533 53 0 0.0 0.0 0.01 0.40 0.21 96 1014.0
20260507024033 53 0 0.0 0.9 0.02 0.40 0.21 96 1014.0
20260507023532 53 22 0.0 0.9 0.02 0.40 0.21 96 1014.0
20260507023035 53 225 0.0 0.9 0.03 0.40 0.21 96 1014.0
20260507022532 53 116 0.0 0.9 0.04 0.40 0.21 96 1014.0
20260507021035 53 248 0.0 0.0 0.04 0.40 0.21 95 1014.0
20260507020533 53 270 0.0 0.0 0.05 0.40 0.21 95 1014.0
20260507015532 53 270 0.0 0.0 0.05 0.40 0.21 95 1014.0
20260507014533 53 270 0.0 0.0 0.04 0.39 0.21 95 1014.0
20260507014033 53 270 0.0 0.0 0.03 0.38 0.20 95 1014.0
20260507013532 53 270 0.9 1.7 0.02 0.38 0.19 95 1014.0
20260507013034 53 270 0.0 0.9 0.01 0.38 0.18 95 1014.0
20260507012531 53 248 0.9 0.9 0.02 0.39 0.18 95 1014.0
20260507012033 53 248 0.0 1.7 0.02 0.40 0.18 95 1014.0
20260507011532 53 270 0.9 1.7 0.02 0.41 0.18 95 1014.0
20260507011034 53 0 0.9 5.2 0.04 0.41 0.18 95 1014.0
20260507010532 53 293 0.9 5.2 0.05 0.41 0.17 95 1014.0
20260507005033 53 284 2.6 4.3 0.10 0.41 0.17 95 1014.0
20260507004531 53 69 0.9 2.6 0.11 0.41 0.17 95 1014.0
20260507004032 53 28 0.0 0.9 0.12 0.41 0.17 95 1014.0
20260507003532 53 0 0.0 2.6 0.12 0.41 0.17 95 1014.0
20260507002533 53 270 0.9 2.6 0.13 0.41 0.17 95 1014.0
20260507002033 53 272 0.9 1.7 0.13 0.41 0.16 95 1014.0
20260507001531 53 281 0.9 1.7 0.13 0.40 0.15 95 1014.0
20260507001034 53 66 0.9 2.6 0.12 0.39 0.14 96 1014.0
20260507000532 54 306 1.7 2.6 0.11 0.37 0.12 96 1014.0
20260507000032 54 240 0.9 2.6 0.08 0.34 0.10 96 1014.0
20260506235532 54 98 0.9 2.6 0.07 0.33 0.08 96 1015.0
20260506235034 54 338 1.7 1.7 0.06 0.32 0.08 96 1015.0
20260506234532 54 311 0.9 1.7 0.05 0.31 0.06 96 1015.0
20260506234034 54 0 0.9 2.6 0.04 0.30 0.05 96 1014.0
20260506233531 54 214 0.9 2.6 0.03 0.29 0.04 96 1014.0
20260506233035 54 327 0.9 4.3 0.02 0.28 0.04 96 1014.0
20260506232532 54 271 0.9 1.7 0.03 0.28 0.04 96 1014.0
20260506232032 54 344 0.9 4.3 0.02 0.28 0.03 96 1014.0
20260506230032 54 345 0.0 0.9 0.02 0.26 0.01 96 1014.0
20260506225540 54 0 0.0 0.9 0.02 0.26 0.01 96 1014.0
20260506225034 54 338 0.9 2.6 0.02 0.26 0.01 96 1014.0
20260506224532 54 257 0.9 1.7 0.02 0.26 0.01 96 1014.0
20260506224032 54 38 1.7 2.6 0.03 0.26 0.01 96 1015.0
20260506223531 54 0 0.9 1.7 0.04 0.26 0.01 96 1015.0
20260506223033 54 324 1.7 2.6 0.04 0.26 0.01 96 1015.0
20260506222032 54 312 1.7 4.3 0.03 0.25 0.01 96 1015.0
20260506221033 54 270 0.9 0.9 0.03 0.25 0.00 95 1015.0
20260506220531 54 270 0.9 1.7 0.04 0.25 0.00 95 1015.0
20260506220032 54 135 0.9 1.7 0.04 0.25 0.00 95 1015.0
20260506215033 54 270 0.0 2.6 0.04 0.24 0.24 95 1015.0
20260506214532 54 285 0.9 2.6 0.04 0.24 0.24 95 1015.0
20260506214033 54 310 1.7 5.2 0.04 0.23 0.23 95 1015.0
20260506213533 54 46 0.9 4.3 0.04 0.23 0.23 95 1015.0
20260506213032 55 312 2.6 6.1 0.04 0.22 0.22 95 1015.0
20260506212532 55 49 0.9 2.6 0.04 0.22 0.22 95 1014.0
20260506212032 55 0 1.7 4.3 0.04 0.22 0.22 95 1014.0
20260506211533 55 354 1.7 2.6 0.03 0.21 0.21 95 1014.0
20260506211032 55 51 0.9 2.6 0.04 0.21 0.21 95 1015.0
20260506210531 55 316 2.6 4.3 0.03 0.21 0.21 95 1015.0
20260506210033 55 25 2.6 4.3 0.03 0.21 0.21 95 1015.0
20260506205533 55 338 1.7 2.6 0.03 0.22 0.21 94 1014.0
20260506204533 55 270 1.7 2.6 0.02 0.21 0.20 94 1014.0
20260506204034 55 270 0.9 4.3 0.02 0.20 0.19 94 1015.0
20260506203532 55 335 1.7 4.3 0.02 0.20 0.19 94 1015.0
20260506202533 56 309 1.7 5.2 0.02 0.19 0.18 94 1014.0
20260506202032 56 315 0.9 5.2 0.02 0.19 0.18 92 1014.0
20260506201533 56 37 1.7 4.3 0.02 0.19 0.18 92 1014.0
20260506201034 56 53 3.5 8.7 0.01 0.18 0.18 92 1013.0
20260506200034 56 42 2.6 5.2 0.01 0.18 0.18 92 1013.0
20260506195531 56 58 2.6 5.2 0.01 0.18 0.18 92 1013.0
20260506195034 56 72 2.6 5.2 0.02 0.18 0.18 91 1013.0
20260506193033 56 51 2.6 7.0 0.02 0.18 0.17 91 1013.0
20260506192531 56 75 3.5 7.0 0.03 0.18 0.17 91 1013.0
20260506192034 57 82 2.6 4.3 0.04 0.18 0.17 90 1013.0
20260506191534 56 35 1.7 4.3 0.04 0.18 0.17 90 1013.0
20260506191033 56 28 0.9 4.3 0.05 0.18 0.17 90 1012.0
20260506190534 56 346 1.7 4.3 0.04 0.17 0.16 90 1012.0
20260506190032 56 6 1.7 4.3 0.04 0.17 0.16 90 1012.0
20260506184533 57 333 0.9 5.2 0.03 0.16 0.15 90 1013.0
20260506184032 57 347 1.7 5.2 0.03 0.16 0.15 90 1012.0
20260506183032 57 61 0.9 2.6 0.02 0.15 0.15 89 1012.0
20260506182031 57 261 1.7 4.3 0.01 0.14 0.13 89 1013.0
20260506180533 57 87 1.7 5.2 0.00 0.13 0.12 89 1013.0
20260506180032 57 2 2.6 5.2 0.00 0.13 0.12 89 1013.0
20260506175532 57 248 2.6 5.2 0.00 0.13 0.12 89 1013.0
20260506175033 58 354 1.7 2.6 0.00 0.13 0.12 88 1013.0
20260506174532 58 35 0.9 1.7 0.00 0.13 0.12 88 1013.0
20260506174031 58 345 1.7 4.3 0.00 0.13 0.12 88 1013.0
20260506173532 58 349 1.7 4.3 0.00 0.13 0.12 88 1013.0
20260506173033 58 81 1.7 2.6 0.00 0.13 0.12 88 1013.0
20260506172531 58 341 1.7 2.6 0.00 0.13 0.12 88 1012.0
20260506171531 58 238 1.7 5.2 0.00 0.13 0.12 88 1012.0
20260506171033 58 341 1.7 4.3 0.00 0.13 0.12 87 1013.0
20260506165533 58 19 2.6 5.2 0.00 0.13 0.12 87 1013.0
20260506165032 59 182 2.6 5.2 0.00 0.13 0.12 87 1013.0
20260506164532 59 77 1.7 4.3 0.00 0.13 0.12 87 1013.0
20260506164033 59 71 2.6 5.2 0.00 0.13 0.12 87 1012.0
20260506163531 59 90 1.7 2.6 0.00 0.13 0.12 86 1012.0
20260506163032 59 135 1.7 4.3 0.00 0.13 0.12 86 1012.0
20260506162531 59 201 2.6 5.2 0.00 0.13 0.12 86 1013.0
20260506162034 59 300 1.7 5.2 0.00 0.13 0.12 86 1013.0
20260506161532 59 41 1.7 2.6 0.00 0.13 0.12 86 1013.0
20260506161031 59 60 1.7 4.3 0.00 0.14 0.12 86 1013.0
20260506160532 59 47 1.7 4.3 0.00 0.14 0.12 84 1013.0
20260506160033 59 0 1.7 5.2 0.00 0.14 0.12 84 1013.0
20260506155531 59 48 2.6 6.1 0.00 0.14 0.12 84 1012.0
20260506155031 59 270 1.7 2.6 0.00 0.15 0.12 84 1012.0
20260506154531 59 315 1.7 2.6 0.00 0.15 0.12 83 1012.0
20260506153533 59 61 2.6 5.2 0.00 0.15 0.12 83 1013.0
20260506153034 59 272 2.6 5.2 0.00 0.15 0.12 83 1013.0
20260506152531 60 15 2.6 6.1 0.00 0.15 0.12 83 1013.0
20260506152034 60 76 2.6 5.2 0.00 0.15 0.12 83 1013.0
20260506151531 60 45 1.7 5.2 0.00 0.15 0.12 83 1013.0
20260506151033 60 66 4.3 7.0 0.00 0.15 0.12 82 1013.0
20260506150032 60 273 1.7 7.0 0.00 0.15 0.12 81 1013.0
20260506145531 60 20 2.6 7.0 0.00 0.15 0.12 81 1013.0
20260506145033 60 49 2.6 6.1 0.00 0.15 0.12 81 1013.0
20260506144531 60 0 3.5 6.1 0.00 0.15 0.12 81 1013.0
20260506144033 60 75 1.7 4.3 0.00 0.15 0.12 81 1013.0
20260506143532 60 50 2.6 4.3 0.00 0.15 0.12 81 1013.0
20260506142533 60 86 2.6 5.2 0.00 0.15 0.12 80 1012.0
20260506142035 60 52 2.6 6.1 0.00 0.15 0.12 80 1012.0
20260506141531 60 299 2.6 5.2 0.00 0.15 0.12 80 1012.0
20260506141034 60 5 2.6 7.0 0.00 0.15 0.12 80 1012.0
20260506140533 60 19 2.6 6.1 0.00 0.15 0.12 80 1012.0
20260506135530 61 78 2.6 5.2 0.00 0.15 0.12 80 1013.0
20260506135033 61 28 1.7 5.2 0.00 0.15 0.12 80 1013.0
20260506134033 61 121 1.7 5.2 0.00 0.15 0.12 79 1012.0
20260506133532 61 88 4.3 5.2 0.00 0.15 0.12 79 1012.0
20260506133035 61 82 3.5 5.2 0.00 0.15 0.12 78 1012.0
20260506132532 61 81 2.6 6.1 0.00 0.15 0.12 78 1013.0
20260506132032 61 89 2.6 5.2 0.00 0.15 0.12 76 1013.0
20260506131530 61 57 3.5 6.1 0.00 0.15 0.12 76 1013.0
20260506131032 61 80 1.7 4.3 0.00 0.15 0.12 76 1013.0
20260506130531 61 357 1.7 5.2 0.00 0.15 0.12 76 1013.0
20260506130032 61 53 2.6 5.2 0.00 0.15 0.12 76 1013.0
20260506125531 61 333 1.7 4.3 0.00 0.15 0.12 75 1013.0
20260506125033 61 122 1.7 5.2 0.00 0.15 0.12 75 1013.0
20260506124531 61 114 2.6 6.1 0.00 0.15 0.12 74 1013.0
20260506124032 61 17 3.5 7.0 0.00 0.15 0.12 74 1013.0
20260506123532 61 39 2.6 7.0 0.00 0.15 0.12 74 1013.0
20260506123032 61 181 2.6 5.2 0.00 0.15 0.12 73 1013.0
20260506122531 61 318 3.5 7.0 0.00 0.15 0.12 73 1013.0
20260506122031 62 257 2.6 6.1 0.00 0.15 0.12 73 1013.0
20260506121532 61 2 1.7 5.2 0.00 0.15 0.12 71 1013.0
20260506121033 62 308 2.6 7.0 0.00 0.15 0.12 70 1014.0
20260506120532 62 356 2.6 5.2 0.00 0.15 0.12 69 1014.0
20260506120031 62 270 3.5 7.0 0.00 0.15 0.12 68 1014.0
20260506115532 63 292 2.6 5.2 0.00 0.15 0.12 65 1014.0
20260506114530 64 18 2.6 4.3 0.00 0.15 0.12 63 1014.0
20260506114032 64 35 4.3 7.8 0.00 0.15 0.12 63 1013.0
20260506113532 64 90 4.3 7.8 0.00 0.15 0.12 63 1013.0
20260506112531 63 311 2.6 7.0 0.00 0.15 0.12 60 1014.0
20260506111033 64 118 1.7 7.8 0.00 0.15 0.12 61 1014.0
20260506110532 64 4 4.3 10.4 0.00 0.15 0.12 62 1014.0
20260506110031 63 63 3.5 4.3 0.00 0.15 0.12 63 1014.0
20260506105533 63 310 2.6 6.1 0.00 0.15 0.12 63 1014.0
20260506105033 64 69 3.5 7.0 0.00 0.15 0.12 64 1014.0
20260506104531 64 71 3.5 7.0 0.00 0.15 0.12 64 1014.0
20260506104033 64 314 4.3 7.8 0.00 0.15 0.12 65 1014.0
20260506103532 64 23 2.6 8.7 0.00 0.15 0.12 65 1014.0
20260506103031 63 86 7.0 11.3 0.00 0.15 0.12 65 1014.0
20260506102031 63 152 4.3 7.8 0.00 0.15 0.12 64 1014.0
20260506101532 64 286 5.2 7.0 0.00 0.15 0.12 65 1014.0
20260506101032 64 347 2.6 7.0 0.00 0.15 0.12 66 1014.0
20260506100030 64 49 2.6 5.2 0.00 0.15 0.12 70 1014.0
20260506095533 63 131 4.3 6.1 0.00 0.15 0.12 71 1014.0
20260506094530 62 84 4.3 7.8 0.00 0.15 0.12 74 1014.0
20260506093533 62 85 5.2 8.7 0.00 0.15 0.12 78 1013.0
20260506093031 61 72 5.2 7.8 0.00 0.15 0.12 78 1013.0
20260506092032 60 233 4.3 7.8 0.00 0.15 0.12 79 1014.0
20260506091530 60 107 2.6 5.2 0.00 0.15 0.12 79 1014.0
20260506091031 59 356 2.6 7.0 0.00 0.15 0.12 79 1014.0
20260506090532 59 278 3.5 7.0 0.00 0.15 0.12 79 1014.0
20260506090030 59 136 2.6 4.3 0.00 0.15 0.12 79 1014.0
20260506085531 59 191 2.6 4.3 0.00 0.15 0.12 80 1014.0
20260506085033 60 35 1.7 4.3 0.00 0.15 0.12 80 1014.0
20260506084531 60 290 3.5 7.0 0.00 0.15 0.12 81 1014.0
20260506083531 60 67 2.6 5.2 0.00 0.15 0.12 82 1013.0